| time (UTC) | temp C | wind direction | speed KPH | gust KPH | rain 1hr cm | rain 24hr cm | rain mn cm | humidity % | barometer mb |
| 20260903205426 | 37 | 131 | 6.4 | 9.7 | 0.00 | 0.00 | 0.00 | 46 | 1013.6 |
| 20260903204920 | 37 | 207 | 8.0 | 9.7 | 0.00 | 0.00 | 0.00 | 48 | 1013.8 |
| 20260903204417 | 36 | 194 | 6.4 | 8.0 | 0.00 | 0.00 | 0.00 | 47 | 1013.7 |
| 20260903203912 | 36 | 184 | 8.0 | 11.3 | 0.00 | 0.00 | 0.00 | 48 | 1013.7 |
| 20260903203408 | 36 | 172 | 4.8 | 8.0 | 0.00 | 0.00 | 0.00 | 47 | 1013.9 |
| 20260903202907 | 36 | 175 | 3.2 | 3.2 | 0.00 | 0.00 | 0.00 | 47 | 1013.8 |
| 20260903202404 | 37 | 193 | 8.0 | 11.3 | 0.00 | 0.00 | 0.00 | 45 | 1014.3 |
| 20260903201903 | 38 | 197 | 0.0 | 0.0 | 0.00 | 0.00 | 0.00 | 45 | 1014.0 |
| 20260903201359 | 38 | 169 | 8.0 | 9.7 | 0.00 | 0.00 | 0.00 | 45 | 1014.3 |
| 20260903200857 | 38 | 141 | 1.6 | 1.6 | 0.00 | 0.00 | 0.00 | 44 | 1014.1 |
| 20260903200352 | 38 | 211 | 1.6 | 3.2 | 0.00 | 0.00 | 0.00 | 45 | 1014.4 |
| 20260903195848 | 38 | 192 | 8.0 | 9.7 | 0.00 | 0.00 | 0.00 | 45 | 1014.5 |
| 20260903195344 | 38 | 194 | 4.8 | 4.8 | 0.00 | 0.00 | 0.00 | 46 | 1014.3 |
| 20260903194838 | 38 | 193 | 1.6 | 3.2 | 0.00 | 0.00 | 0.00 | 47 | 1014.4 |
| 20260903194334 | 37 | 141 | 6.4 | 8.0 | 0.00 | 0.00 | 0.00 | 46 | 1014.4 |
| 20260903193829 | 37 | 227 | 8.0 | 11.3 | 0.00 | 0.00 | 0.00 | 47 | 1014.5 |
| 20260903193326 | 37 | 194 | 4.8 | 4.8 | 0.00 | 0.00 | 0.00 | 47 | 1014.4 |
| 20260903192821 | 37 | 221 | 4.8 | 4.8 | 0.00 | 0.00 | 0.00 | 47 | 1014.6 |
| 20260903192316 | 36 | 205 | 3.2 | 3.2 | 0.00 | 0.00 | 0.00 | 49 | 1014.7 |
| 20260903191813 | 36 | 211 | 6.4 | 9.7 | 0.00 | 0.00 | 0.00 | 48 | 1015.0 |
| 20260903191308 | 37 | 170 | 6.4 | 9.7 | 0.00 | 0.00 | 0.00 | 47 | 1014.8 |
| 20260903190808 | 38 | 190 | 9.7 | 12.9 | 0.00 | 0.00 | 0.00 | 46 | 1015.1 |
| 20260903190303 | 37 | 190 | 1.6 | 4.8 | 0.00 | 0.00 | 0.00 | 47 | 1015.0 |
| 20260903185756 | 36 | 230 | 1.6 | 1.6 | 0.00 | 0.00 | 0.00 | 52 | 1015.1 |
| 20260903185256 | 37 | 240 | 6.4 | 9.7 | 0.00 | 0.00 | 0.00 | 49 | 1015.2 |
| 20260903184753 | 37 | 225 | 0.0 | 0.0 | 0.00 | 0.00 | 0.00 | 46 | 1015.3 |
| 20260903184249 | 37 | 132 | 1.6 | 3.2 | 0.00 | 0.00 | 0.00 | 45 | 1015.4 |
| 20260903183745 | 37 | 192 | 6.4 | 8.0 | 0.00 | 0.00 | 0.00 | 46 | 1015.4 |
| 20260903183244 | 37 | 144 | 6.4 | 9.7 | 0.00 | 0.00 | 0.00 | 46 | 1015.5 |
| 20260903182743 | 37 | 160 | 3.2 | 4.8 | 0.00 | 0.00 | 0.00 | 45 | 1015.7 |
| 20260903182238 | 37 | 277 | 4.8 | 8.0 | 0.00 | 0.00 | 0.00 | 48 | 1015.6 |
| 20260903181737 | 37 | 192 | 6.4 | 8.0 | 0.00 | 0.00 | 0.00 | 46 | 1015.7 |
| 20260903181232 | 36 | 212 | 6.4 | 8.0 | 0.00 | 0.00 | 0.00 | 47 | 1016.0 |
| 20260903180728 | 36 | 228 | 3.2 | 3.2 | 0.00 | 0.00 | 0.00 | 47 | 1015.9 |
| 20260903180226 | 36 | 213 | 1.6 | 3.2 | 0.00 | 0.00 | 0.00 | 47 | 1016.0 |
| 20260903175721 | 36 | 155 | 9.7 | 12.9 | 0.00 | 0.00 | 0.00 | 47 | 1016.2 |
| 20260903175215 | 36 | 242 | 1.6 | 1.6 | 0.00 | 0.00 | 0.00 | 50 | 1016.3 |
| 20260903174714 | 36 | 134 | 4.8 | 4.8 | 0.00 | 0.00 | 0.00 | 50 | 1015.9 |
| 20260903174210 | 36 | 130 | 8.0 | 9.7 | 0.00 | 0.00 | 0.00 | 48 | 1015.9 |
| 20260903173710 | 36 | 249 | 3.2 | 3.2 | 0.00 | 0.00 | 0.00 | 50 | 1016.3 |
| 20260903173206 | 36 | 193 | 3.2 | 3.2 | 0.00 | 0.00 | 0.00 | 49 | 1016.2 |
| 20260903172700 | 36 | 240 | 3.2 | 4.8 | 0.00 | 0.00 | 0.00 | 49 | 1016.3 |
| 20260903172155 | 36 | 232 | 4.8 | 8.0 | 0.00 | 0.00 | 0.00 | 50 | 1016.3 |
| 20260903171650 | 36 | 188 | 1.6 | 3.2 | 0.00 | 0.00 | 0.00 | 49 | 1016.6 |
| 20260903171147 | 36 | 227 | 1.6 | 1.6 | 0.00 | 0.00 | 0.00 | 54 | 1016.4 |
| 20260903170645 | 36 | 207 | 1.6 | 3.2 | 0.00 | 0.00 | 0.00 | 51 | 1016.5 |
| 20260903170141 | 36 | 122 | 3.2 | 8.0 | 0.00 | 0.00 | 0.00 | 49 | 1016.7 |
| 20260903165638 | 36 | 236 | 0.0 | 0.0 | 0.00 | 0.00 | 0.00 | 54 | 1016.5 |
| 20260903165133 | 36 | 114 | 0.0 | 1.6 | 0.00 | 0.00 | 0.00 | 53 | 1016.6 |
| 20260903164628 | 35 | 142 | 3.2 | 4.8 | 0.00 | 0.00 | 0.00 | 54 | 1016.6 |
| 20260903164124 | 35 | 245 | 0.0 | 0.0 | 0.00 | 0.00 | 0.00 | 55 | 1016.7 |
| 20260903163618 | 35 | 207 | 1.6 | 1.6 | 0.00 | 0.00 | 0.00 | 56 | 1017.0 |
| 20260903163115 | 35 | 139 | 8.0 | 9.7 | 0.00 | 0.00 | 0.00 | 56 | 1016.8 |
| 20260903162611 | 34 | 129 | 6.4 | 9.7 | 0.00 | 0.00 | 0.00 | 58 | 1017.0 |
| 20260903162107 | 34 | 181 | 11.3 | 12.9 | 0.00 | 0.00 | 0.00 | 57 | 1017.1 |
| 20260903161601 | 33 | 222 | 3.2 | 4.8 | 0.00 | 0.00 | 0.00 | 60 | 1017.0 |
| 20260903161057 | 33 | 199 | 3.2 | 3.2 | 0.00 | 0.00 | 0.00 | 58 | 1017.1 |
| 20260903160556 | 34 | 167 | 6.4 | 11.3 | 0.00 | 0.00 | 0.00 | 57 | 1016.7 |
| 20260903160051 | 34 | 172 | 1.6 | 3.2 | 0.00 | 0.00 | 0.00 | 58 | 1017.0 |
| 20260903155550 | 34 | 318 | 1.6 | 3.2 | 0.00 | 0.00 | 0.00 | 61 | 1017.0 |
| 20260903155045 | 33 | 169 | 9.7 | 12.9 | 0.00 | 0.00 | 0.00 | 61 | 1016.8 |
| 20260903154542 | 32 | 209 | 3.2 | 3.2 | 0.00 | 0.00 | 0.00 | 63 | 1017.0 |
| 20260903154038 | 32 | 235 | 6.4 | 9.7 | 0.00 | 0.00 | 0.00 | 64 | 1017.1 |
| 20260903153532 | 32 | 215 | 3.2 | 3.2 | 0.00 | 0.00 | 0.00 | 66 | 1017.2 |
| 20260903153028 | 32 | 179 | 3.2 | 4.8 | 0.00 | 0.00 | 0.00 | 65 | 1017.0 |
| 20260903152524 | 32 | 233 | 1.6 | 3.2 | 0.00 | 0.00 | 0.00 | 66 | 1017.2 |
| 20260903152021 | 32 | 236 | 1.6 | 1.6 | 0.00 | 0.00 | 0.00 | 65 | 1017.3 |
| 20260903151519 | 32 | 186 | 6.4 | 9.7 | 0.00 | 0.00 | 0.00 | 65 | 1017.2 |
| 20260903151015 | 32 | 176 | 1.6 | 1.6 | 0.00 | 0.00 | 0.00 | 69 | 1016.8 |
| 20260903150509 | 32 | 129 | 9.7 | 11.3 | 0.00 | 0.00 | 0.00 | 67 | 1016.8 |
| 20260903150004 | 32 | 201 | 1.6 | 1.6 | 0.00 | 0.00 | 0.00 | 68 | 1017.0 |
| 20260903145458 | 31 | 247 | 3.2 | 4.8 | 0.00 | 0.00 | 0.00 | 71 | 1017.0 |
| 20260903144954 | 31 | 186 | 6.4 | 9.7 | 0.00 | 0.00 | 0.00 | 71 | 1017.0 |
| 20260903144453 | 31 | 198 | 8.0 | 9.7 | 0.00 | 0.00 | 0.00 | 70 | 1017.0 |
| 20260903143949 | 31 | 203 | 3.2 | 3.2 | 0.00 | 0.00 | 0.00 | 73 | 1016.8 |
| 20260903143445 | 31 | 176 | 8.0 | 11.3 | 0.00 | 0.00 | 0.00 | 73 | 1017.1 |
| 20260903142940 | 30 | 194 | 4.8 | 4.8 | 0.00 | 0.00 | 0.00 | 74 | 1017.3 |
| 20260903142436 | 30 | 175 | 6.4 | 8.0 | 0.00 | 0.00 | 0.00 | 75 | 1017.3 |
| 20260903141932 | 30 | 172 | 4.8 | 4.8 | 0.00 | 0.00 | 0.00 | 76 | 1017.4 |
| 20260903141427 | 30 | 189 | 1.6 | 3.2 | 0.00 | 0.00 | 0.00 | 76 | 1017.1 |
| 20260903140923 | 30 | 236 | 8.0 | 12.9 | 0.00 | 0.00 | 0.00 | 76 | 1017.0 |
| 20260903140419 | 30 | 28 | 3.2 | 3.2 | 0.00 | 0.00 | 0.00 | 78 | 1017.1 |
| 20260903135913 | 29 | 198 | 3.2 | 4.8 | 0.00 | 0.00 | 0.00 | 79 | 1017.0 |
| 20260903135409 | 29 | 236 | 6.4 | 8.0 | 0.00 | 0.00 | 0.00 | 79 | 1017.1 |
| 20260903134908 | 29 | 203 | 11.3 | 12.9 | 0.00 | 0.00 | 0.00 | 80 | 1017.4 |
| 20260903134403 | 28 | 178 | 1.6 | 3.2 | 0.00 | 0.00 | 0.00 | 81 | 1017.3 |
| 20260903133901 | 28 | 213 | 3.2 | 8.0 | 0.00 | 0.00 | 0.00 | 81 | 1017.0 |
| 20260903133357 | 29 | 217 | 0.0 | 1.6 | 0.00 | 0.00 | 0.00 | 81 | 1017.0 |
| 20260903132857 | 28 | 223 | 0.0 | 1.6 | 0.00 | 0.00 | 0.00 | 83 | 1017.1 |
| 20260903132353 | 28 | 223 | 1.6 | 3.2 | 0.00 | 0.00 | 0.00 | 82 | 1017.2 |
| 20260903131853 | 28 | 178 | 4.8 | 4.8 | 0.00 | 0.00 | 0.00 | 83 | 1017.1 |
| 20260903131347 | 28 | 193 | 0.0 | 1.6 | 0.00 | 0.00 | 0.00 | 84 | 1017.1 |
| 20260903130846 | 27 | 190 | 3.2 | 4.8 | 0.00 | 0.00 | 0.00 | 85 | 1017.2 |
| 20260903130341 | 27 | 211 | 1.6 | 1.6 | 0.00 | 0.00 | 0.00 | 87 | 1017.1 |
| 20260903125840 | 27 | 217 | 0.0 | 0.0 | 0.00 | 0.00 | 0.00 | 88 | 1017.2 |
| 20260903125335 | 27 | 214 | 1.6 | 3.2 | 0.00 | 0.00 | 0.00 | 88 | 1017.2 |
| 20260903124834 | 27 | 217 | 0.0 | 0.0 | 0.00 | 0.00 | 0.00 | 89 | 1017.0 |
| 20260903124330 | 27 | 218 | 0.0 | 1.6 | 0.00 | 0.00 | 0.00 | 89 | 1017.1 |
| 20260903123828 | 26 | 219 | 0.0 | 0.0 | 0.00 | 0.00 | 0.00 | 89 | 1017.0 |
| 20260903123323 | 26 | 214 | 1.6 | 1.6 | 0.00 | 0.00 | 0.00 | 89 | 1016.8 |
| 20260903122821 | 26 | 221 | 0.0 | 0.0 | 0.00 | 0.00 | 0.00 | 90 | 1017.0 |
| 20260903122317 | 26 | 203 | 1.6 | 1.6 | 0.00 | 0.00 | 0.00 | 89 | 1016.7 |
| 20260903121815 | 26 | 218 | 3.2 | 4.8 | 0.00 | 0.00 | 0.00 | 89 | 1016.8 |
| 20260903121311 | 26 | 203 | 3.2 | 4.8 | 0.00 | 0.00 | 0.00 | 90 | 1016.8 |
| 20260903120807 | 26 | 215 | 3.2 | 3.2 | 0.00 | 0.00 | 0.00 | 89 | 1016.8 |
| 20260903120306 | 26 | 234 | 1.6 | 1.6 | 0.00 | 0.00 | 0.00 | 89 | 1016.6 |
| 20260903115804 | 26 | 218 | 1.6 | 1.6 | 0.00 | 0.00 | 0.00 | 89 | 1016.7 |
| 20260903115300 | 26 | 212 | 4.8 | 4.8 | 0.00 | 0.00 | 0.00 | 90 | 1016.5 |
| 20260903114759 | 26 | 212 | 1.6 | 1.6 | 0.00 | 0.00 | 0.00 | 90 | 1016.6 |
| 20260903114255 | 26 | 219 | 0.0 | 0.0 | 0.00 | 0.00 | 0.00 | 90 | 1016.6 |
| 20260903113750 | 26 | 203 | 1.6 | 1.6 | 0.00 | 0.00 | 0.00 | 91 | 1016.7 |
| 20260903113246 | 26 | 251 | 0.0 | 1.6 | 0.00 | 0.00 | 0.00 | 91 | 1016.4 |
| 20260903112742 | 26 | 220 | 0.0 | 0.0 | 0.00 | 0.00 | 0.00 | 91 | 1016.6 |
| 20260903112237 | 26 | 219 | 0.0 | 0.0 | 0.00 | 0.00 | 0.00 | 91 | 1016.4 |
| 20260903111736 | 26 | 220 | 0.0 | 0.0 | 0.00 | 0.00 | 0.00 | 91 | 1016.4 |
| 20260903111231 | 26 | 214 | 0.0 | 1.6 | 0.00 | 0.00 | 0.00 | 92 | 1016.3 |
| 20260903110727 | 26 | 209 | 1.6 | 1.6 | 0.00 | 0.00 | 0.00 | 91 | 1016.3 |
| 20260903110223 | 26 | 210 | 1.6 | 1.6 | 0.00 | 0.00 | 0.00 | 91 | 1016.3 |
| 20260903105722 | 26 | 205 | 0.0 | 1.6 | 0.00 | 0.00 | 0.00 | 92 | 1016.3 |
| 20260903105218 | 26 | 200 | 1.6 | 3.2 | 0.00 | 0.00 | 0.00 | 92 | 1016.2 |
| 20260903104717 | 26 | 213 | 0.0 | 0.0 | 0.00 | 0.00 | 0.00 | 92 | 1016.3 |
| 20260903104213 | 26 | 179 | 3.2 | 4.8 | 0.00 | 0.00 | 0.00 | 92 | 1016.2 |
| 20260903103708 | 26 | 180 | 3.2 | 4.8 | 0.00 | 0.00 | 0.00 | 92 | 1016.3 |
| 20260903103205 | 26 | 204 | 4.8 | 4.8 | 0.00 | 0.00 | 0.00 | 92 | 1016.0 |
| 20260903102700 | 26 | 196 | 1.6 | 3.2 | 0.00 | 0.00 | 0.00 | 92 | 1016.2 |
| 20260903102200 | 26 | 228 | 0.0 | 0.0 | 0.00 | 0.00 | 0.00 | 92 | 1016.4 |
| 20260903101658 | 26 | 197 | 0.0 | 0.0 | 0.00 | 0.00 | 0.00 | 92 | 1016.3 |
| 20260903101154 | 26 | 210 | 1.6 | 1.6 | 0.00 | 0.00 | 0.00 | 92 | 1016.2 |
| 20260903100654 | 26 | 219 | 0.0 | 0.0 | 0.00 | 0.00 | 0.00 | 91 | 1016.2 |
| 20260903100154 | 26 | 193 | 0.0 | 0.0 | 0.00 | 0.00 | 0.00 | 91 | 1016.0 |
| 20260903095651 | 26 | 199 | 0.0 | 1.6 | 0.00 | 0.00 | 0.00 | 91 | 1016.2 |
| 20260903095146 | 26 | 217 | 1.6 | 1.6 | 0.00 | 0.00 | 0.00 | 91 | 1016.3 |
| 20260903094642 | 26 | 218 | 0.0 | 0.0 | 0.00 | 0.00 | 0.00 | 91 | 1016.3 |
| 20260903094136 | 26 | 209 | 0.0 | 1.6 | 0.00 | 0.00 | 0.00 | 91 | 1016.3 |
| 20260903093632 | 26 | 171 | 3.2 | 3.2 | 0.00 | 0.00 | 0.00 | 90 | 1016.5 |
| 20260903093127 | 26 | 180 | 0.0 | 0.0 | 0.00 | 0.00 | 0.00 | 90 | 1016.5 |
| 20260903092627 | 26 | 218 | 0.0 | 0.0 | 0.00 | 0.00 | 0.00 | 90 | 1016.4 |
| 20260903092122 | 26 | 185 | 6.4 | 8.0 | 0.00 | 0.00 | 0.00 | 90 | 1016.3 |
| 20260903091620 | 26 | 241 | 0.0 | 0.0 | 0.00 | 0.00 | 0.00 | 90 | 1016.4 |
| 20260903091114 | 26 | 201 | 3.2 | 3.2 | 0.00 | 0.00 | 0.00 | 89 | 1016.4 |
| 20260903090611 | 26 | 198 | 1.6 | 1.6 | 0.00 | 0.00 | 0.00 | 89 | 1016.5 |
| 20260903090109 | 26 | 168 | 4.8 | 4.8 | 0.00 | 0.00 | 0.00 | 89 | 1016.4 |
| 20260903085608 | 26 | 210 | 1.6 | 1.6 | 0.00 | 0.00 | 0.00 | 89 | 1016.4 |
| 20260903085104 | 26 | 208 | 1.6 | 3.2 | 0.00 | 0.00 | 0.00 | 89 | 1016.5 |
| 20260903084601 | 26 | 216 | 0.0 | 1.6 | 0.00 | 0.00 | 0.00 | 89 | 1016.5 |
| 20260903084056 | 26 | 208 | 0.0 | 1.6 | 0.00 | 0.00 | 0.00 | 89 | 1016.3 |
| 20260903083552 | 26 | 199 | 1.6 | 3.2 | 0.00 | 0.00 | 0.00 | 89 | 1016.5 |
| 20260903083052 | 26 | 208 | 0.0 | 1.6 | 0.00 | 0.00 | 0.00 | 88 | 1016.7 |
| 20260903082546 | 26 | 207 | 1.6 | 3.2 | 0.00 | 0.00 | 0.00 | 88 | 1016.6 |
| 20260903082042 | 26 | 229 | 0.0 | 1.6 | 0.00 | 0.00 | 0.00 | 88 | 1016.5 |
| 20260903081537 | 26 | 207 | 3.2 | 3.2 | 0.00 | 0.00 | 0.00 | 87 | 1016.6 |
| 20260903081033 | 26 | 243 | 4.8 | 4.8 | 0.00 | 0.00 | 0.00 | 87 | 1016.5 |
| 20260903080529 | 27 | 228 | 3.2 | 3.2 | 0.00 | 0.00 | 0.00 | 87 | 1016.6 |
| 20260903080026 | 27 | 208 | 4.8 | 4.8 | 0.00 | 0.00 | 0.00 | 86 | 1016.4 |
| 20260903075520 | 27 | 168 | 4.8 | 4.8 | 0.00 | 0.00 | 0.00 | 86 | 1016.5 |
| 20260903075015 | 27 | 154 | 6.4 | 9.7 | 0.00 | 0.00 | 0.00 | 86 | 1016.5 |
| 20260903074515 | 27 | 219 | 3.2 | 8.0 | 0.00 | 0.00 | 0.00 | 85 | 1016.5 |
| 20260903074009 | 27 | 197 | 1.6 | 3.2 | 0.00 | 0.00 | 0.00 | 85 | 1016.6 |
| 20260903073504 | 27 | 203 | 4.8 | 4.8 | 0.00 | 0.00 | 0.00 | 85 | 1016.8 |
| 20260903073000 | 27 | 168 | 6.4 | 8.0 | 0.00 | 0.00 | 0.00 | 84 | 1016.8 |
| 20260903072456 | 27 | 152 | 6.4 | 8.0 | 0.00 | 0.00 | 0.00 | 84 | 1016.6 |
| 20260903071953 | 27 | 182 | 3.2 | 3.2 | 0.00 | 0.00 | 0.00 | 83 | 1016.4 |
| 20260903071448 | 27 | 221 | 3.2 | 3.2 | 0.00 | 0.00 | 0.00 | 83 | 1016.5 |
| 20260903070944 | 27 | 215 | 3.2 | 4.8 | 0.00 | 0.00 | 0.00 | 82 | 1016.6 |
| 20260903070444 | 27 | 197 | 3.2 | 4.8 | 0.00 | 0.00 | 0.00 | 81 | 1016.6 |
| 20260903065944 | 27 | 181 | 4.8 | 4.8 | 0.00 | 0.00 | 0.00 | 80 | 1016.6 |
| 20260903065439 | 27 | 206 | 3.2 | 3.2 | 0.00 | 0.00 | 0.00 | 79 | 1016.6 |
| 20260903064938 | 27 | 218 | 3.2 | 3.2 | 0.00 | 0.00 | 0.00 | 79 | 1016.8 |
| 20260903064433 | 27 | 184 | 4.8 | 4.8 | 0.00 | 0.00 | 0.00 | 78 | 1017.2 |
| 20260903063929 | 27 | 212 | 3.2 | 4.8 | 0.00 | 0.00 | 0.00 | 78 | 1017.1 |
| 20260903063424 | 27 | 212 | 3.2 | 3.2 | 0.00 | 0.00 | 0.00 | 77 | 1016.7 |
| 20260903062920 | 28 | 189 | 1.6 | 1.6 | 0.00 | 0.00 | 0.00 | 76 | 1017.2 |
| 20260903062420 | 28 | 192 | 4.8 | 4.8 | 0.00 | 0.00 | 0.00 | 76 | 1016.7 |
| 20260903061915 | 28 | 185 | 1.6 | 1.6 | 0.00 | 0.00 | 0.00 | 75 | 1017.1 |
| 20260903061415 | 28 | 146 | 4.8 | 9.7 | 0.00 | 0.00 | 0.00 | 74 | 1017.1 |
| 20260903060910 | 28 | 218 | 0.0 | 1.6 | 0.00 | 0.00 | 0.00 | 74 | 1016.7 |
| 20260903060404 | 28 | 174 | 4.8 | 4.8 | 0.00 | 0.00 | 0.00 | 73 | 1017.1 |
| 20260903055902 | 28 | 167 | 8.0 | 11.3 | 0.00 | 0.00 | 0.00 | 73 | 1016.6 |
| 20260903055400 | 28 | 211 | 6.4 | 8.0 | 0.00 | 0.00 | 0.00 | 72 | 1016.6 |
| 20260903054856 | 28 | 156 | 3.2 | 8.0 | 0.00 | 0.00 | 0.00 | 72 | 1016.8 |
| 20260903054356 | 28 | 191 | 3.2 | 3.2 | 0.00 | 0.00 | 0.00 | 72 | 1016.4 |
| 20260903053852 | 28 | 178 | 6.4 | 8.0 | 0.00 | 0.00 | 0.00 | 71 | 1016.5 |
| 20260903053347 | 28 | 162 | 6.4 | 12.9 | 0.00 | 0.00 | 0.00 | 71 | 1016.7 |
| 20260903052843 | 29 | 147 | 6.4 | 12.9 | 0.00 | 0.00 | 0.00 | 70 | 1016.6 |
| 20260903052338 | 29 | 168 | 8.0 | 9.7 | 0.00 | 0.00 | 0.00 | 70 | 1016.6 |
| 20260903051834 | 29 | 218 | 4.8 | 8.0 | 0.00 | 0.00 | 0.00 | 69 | 1016.6 |
| 20260903051329 | 29 | 209 | 6.4 | 9.7 | 0.00 | 0.00 | 0.00 | 69 | 1016.5 |
| 20260903050825 | 29 | 182 | 9.7 | 11.3 | 0.00 | 0.00 | 0.00 | 69 | 1016.4 |
| 20260903050324 | 29 | 133 | 4.8 | 4.8 | 0.00 | 0.00 | 0.00 | 69 | 1016.2 |
| 20260903045819 | 29 | 180 | 6.4 | 8.0 | 0.00 | 0.00 | 0.00 | 69 | 1016.5 |
| 20260903045314 | 29 | 220 | 8.0 | 9.7 | 0.00 | 0.00 | 0.00 | 69 | 1016.4 |
| 20260903044811 | 30 | 192 | 4.8 | 8.0 | 0.00 | 0.00 | 0.00 | 69 | 1016.4 |
| 20260903044306 | 30 | 169 | 4.8 | 8.0 | 0.00 | 0.00 | 0.00 | 68 | 1016.3 |
| 20260903043802 | 30 | 168 | 4.8 | 8.0 | 0.00 | 0.00 | 0.00 | 68 | 1016.5 |
| 20260903043302 | 30 | 149 | 3.2 | 3.2 | 0.00 | 0.00 | 0.00 | 67 | 1016.5 |
| 20260903042801 | 30 | 165 | 8.0 | 9.7 | 0.00 | 0.00 | 0.00 | 67 | 1016.4 |
| 20260903042256 | 30 | 193 | 4.8 | 8.0 | 0.00 | 0.00 | 0.00 | 66 | 1016.4 |
| 20260903041753 | 30 | 164 | 4.8 | 8.0 | 0.00 | 0.00 | 0.00 | 65 | 1016.2 |
| 20260903041249 | 30 | 206 | 8.0 | 11.3 | 0.00 | 0.00 | 0.00 | 65 | 1016.1 |
| 20260903040748 | 30 | 219 | 1.6 | 1.6 | 0.00 | 0.00 | 0.00 | 64 | 1016.3 |
| 20260903040243 | 30 | 138 | 9.7 | 12.9 | 0.00 | 0.00 | 0.00 | 64 | 1016.0 |
| 20260903035739 | 30 | 194 | 4.8 | 8.0 | 0.00 | 0.00 | 0.00 | 63 | 1016.2 |
| 20260903035234 | 31 | 230 | 6.4 | 8.0 | 0.00 | 0.00 | 0.00 | 63 | 1016.2 |
| 20260903034729 | 31 | 182 | 6.4 | 11.3 | 0.00 | 0.00 | 0.00 | 62 | 1016.0 |
| 20260903034224 | 31 | 180 | 4.8 | 8.0 | 0.00 | 0.00 | 0.00 | 61 | 1016.0 |
| 20260903033720 | 31 | 172 | 12.9 | 17.7 | 0.00 | 0.00 | 0.00 | 60 | 1015.9 |
| 20260903033220 | 31 | 176 | 8.0 | 9.7 | 0.00 | 0.00 | 0.00 | 61 | 1016.1 |
| 20260903032714 | 31 | 187 | 3.2 | 4.8 | 0.00 | 0.00 | 0.00 | 60 | 1016.0 |
| 20260903032210 | 31 | 148 | 4.8 | 4.8 | 0.00 | 0.00 | 0.00 | 60 | 1015.7 |
| 20260903031706 | 31 | 197 | 1.6 | 3.2 | 0.00 | 0.00 | 0.00 | 60 | 1015.8 |
| 20260903031205 | 31 | 211 | 1.6 | 3.2 | 0.00 | 0.00 | 0.00 | 59 | 1015.8 |
| 20260903030702 | 31 | 170 | 4.8 | 4.8 | 0.00 | 0.00 | 0.00 | 59 | 1015.6 |
| 20260903030157 | 31 | 211 | 3.2 | 3.2 | 0.00 | 0.00 | 0.00 | 59 | 1015.5 |
| 20260903025652 | 31 | 200 | 3.2 | 4.8 | 0.00 | 0.00 | 0.00 | 59 | 1015.4 |
| 20260903025148 | 31 | 232 | 0.0 | 0.0 | 0.00 | 0.00 | 0.00 | 60 | 1015.4 |
| 20260903024643 | 30 | 207 | 3.2 | 3.2 | 0.00 | 0.00 | 0.00 | 62 | 1015.2 |
| 20260903024141 | 30 | 208 | 0.0 | 0.0 | 0.00 | 0.00 | 0.00 | 63 | 1015.2 |
| 20260903023638 | 30 | 208 | 0.0 | 0.0 | 0.00 | 0.00 | 0.00 | 62 | 1015.1 |
| 20260903023138 | 31 | 208 | 0.0 | 0.0 | 0.00 | 0.00 | 0.00 | 61 | 1014.9 |
| 20260903022632 | 31 | 207 | 0.0 | 0.0 | 0.00 | 0.00 | 0.00 | 61 | 1014.8 |
| 20260903022131 | 31 | 208 | 0.0 | 0.0 | 0.00 | 0.00 | 0.00 | 60 | 1014.8 |
| 20260903021626 | 31 | 208 | 0.0 | 0.0 | 0.00 | 0.00 | 0.00 | 58 | 1015.0 |
| 20260903021126 | 31 | 208 | 0.0 | 0.0 | 0.00 | 0.00 | 0.00 | 57 | 1014.8 |
| 20260903020621 | 31 | 208 | 0.0 | 0.0 | 0.00 | 0.00 | 0.00 | 57 | 1014.5 |
| 20260903020116 | 31 | 208 | 0.0 | 0.0 | 0.00 | 0.00 | 0.00 | 56 | 1014.7 |
| 20260903015612 | 32 | 208 | 0.0 | 0.0 | 0.00 | 0.00 | 0.00 | 56 | 1014.6 |
| 20260903015107 | 32 | 208 | 0.0 | 0.0 | 0.00 | 0.00 | 0.00 | 55 | 1014.5 |
| 20260903014607 | 32 | 208 | 0.0 | 0.0 | 0.00 | 0.00 | 0.00 | 55 | 1014.5 |
| 20260903014106 | 32 | 203 | 3.2 | 3.2 | 0.00 | 0.00 | 0.00 | 54 | 1014.3 |
| 20260903013601 | 32 | 216 | 1.6 | 1.6 | 0.00 | 0.00 | 0.00 | 55 | 1014.4 |
| 20260903013056 | 32 | 233 | 0.0 | 0.0 | 0.00 | 0.00 | 0.00 | 61 | 1014.4 |
| 20260903012555 | 32 | 233 | 0.0 | 0.0 | 0.00 | 0.00 | 0.00 | 59 | 1014.4 |
| 20260903012054 | 32 | 233 | 0.0 | 0.0 | 0.00 | 0.00 | 0.00 | 56 | 1014.3 |
| 20260903011549 | 33 | 233 | 0.0 | 0.0 | 0.00 | 0.00 | 0.00 | 54 | 1014.3 |
| 20260903011049 | 33 | 205 | 0.0 | 0.0 | 0.00 | 0.00 | 0.00 | 53 | 1014.3 |
| 20260903010544 | 33 | 173 | 3.2 | 4.8 | 0.00 | 0.00 | 0.00 | 51 | 1014.3 |
| 20260903010042 | 33 | 205 | 0.0 | 0.0 | 0.00 | 0.00 | 0.00 | 52 | 1014.0 |
| 20260903005537 | 34 | 205 | 0.0 | 0.0 | 0.00 | 0.00 | 0.00 | 51 | 1014.4 |
| 20260903005033 | 34 | 220 | 0.0 | 0.0 | 0.00 | 0.00 | 0.00 | 50 | 1014.0 |
| 20260903004532 | 34 | 173 | 1.6 | 3.2 | 0.00 | 0.00 | 0.00 | 49 | 1014.1 |
| 20260903004028 | 34 | 205 | 0.0 | 0.0 | 0.00 | 0.00 | 0.00 | 48 | 1014.2 |
| 20260903003523 | 34 | 219 | 0.0 | 0.0 | 0.00 | 0.00 | 0.00 | 50 | 1014.1 |
| 20260903003019 | 35 | 226 | 0.0 | 0.0 | 0.00 | 0.00 | 0.00 | 48 | 1014.0 |
| 20260903002519 | 35 | 226 | 0.0 | 0.0 | 0.00 | 0.00 | 0.00 | 48 | 1014.2 |
| 20260903002013 | 35 | 217 | 3.2 | 3.2 | 0.00 | 0.00 | 0.00 | 46 | 1014.0 |
| 20260903001508 | 35 | 215 | 1.6 | 1.6 | 0.00 | 0.00 | 0.00 | 47 | 1014.1 |
| 20260903001007 | 35 | 233 | 0.0 | 0.0 | 0.00 | 0.00 | 0.00 | 48 | 1014.2 |
| 20260903000503 | 35 | 233 | 0.0 | 0.0 | 0.00 | 0.00 | 0.00 | 47 | 1014.1 |
| 20260903000001 | 35 | 242 | 0.0 | 0.0 | 0.00 | 0.00 | 0.00 | 47 | 1014.1 |
| 20260902235456 | 35 | 228 | 0.0 | 0.0 | 0.00 | 0.00 | 0.00 | 46 | 1014.2 |
| 20260902234950 | 36 | 220 | 0.0 | 0.0 | 0.00 | 0.00 | 0.00 | 43 | 1014.3 |
| 20260902234445 | 36 | 203 | 0.0 | 0.0 | 0.00 | 0.00 | 0.00 | 44 | 1014.2 |
| 20260902233944 | 36 | 205 | 0.0 | 0.0 | 0.00 | 0.00 | 0.00 | 43 | 1014.1 |
| 20260902233438 | 37 | 207 | 0.0 | 0.0 | 0.00 | 0.00 | 0.00 | 41 | 1014.2 |
| 20260902232938 | 37 | 186 | 1.6 | 3.2 | 0.00 | 0.00 | 0.00 | 40 | 1014.2 |
| 20260902232433 | 38 | 243 | 0.0 | 0.0 | 0.00 | 0.00 | 0.00 | 42 | 1014.2 |
| 20260902231932 | 37 | 242 | 0.0 | 0.0 | 0.00 | 0.00 | 0.00 | 42 | 1014.2 |
| 20260902231428 | 37 | 241 | 0.0 | 0.0 | 0.00 | 0.00 | 0.00 | 41 | 1014.1 |
| 20260902230922 | 38 | 255 | 0.0 | 0.0 | 0.00 | 0.00 | 0.00 | 42 | 1014.1 |
| 20260902230422 | 38 | 231 | 0.0 | 1.6 | 0.00 | 0.00 | 0.00 | 40 | 1014.0 |
| 20260902225916 | 37 | 218 | 0.0 | 0.0 | 0.00 | 0.00 | 0.00 | 43 | 1014.2 |
| 20260902225411 | 37 | 187 | 3.2 | 3.2 | 0.00 | 0.00 | 0.00 | 42 | 1014.1 |
| 20260902224909 | 37 | 205 | 3.2 | 3.2 | 0.00 | 0.00 | 0.00 | 42 | 1014.2 |
| 20260902224409 | 37 | 204 | 0.0 | 0.0 | 0.00 | 0.00 | 0.00 | 45 | 1014.1 |
| 20260902223906 | 36 | 208 | 3.2 | 3.2 | 0.00 | 0.00 | 0.00 | 44 | 1014.3 |
| 20260902223401 | 37 | 215 | 3.2 | 3.2 | 0.00 | 0.00 | 0.00 | 43 | 1014.4 |
| 20260902222856 | 37 | 224 | 0.0 | 0.0 | 0.00 | 0.00 | 0.00 | 44 | 1014.3 |
| 20260902222354 | 37 | 223 | 0.0 | 0.0 | 0.00 | 0.00 | 0.00 | 42 | 1014.4 |
| 20260902221853 | 36 | 206 | 3.2 | 4.8 | 0.00 | 0.00 | 0.00 | 43 | 1014.5 |
| 20260902221353 | 36 | 205 | 3.2 | 3.2 | 0.00 | 0.00 | 0.00 | 45 | 1014.4 |
| 20260902220849 | 36 | 249 | 1.6 | 3.2 | 0.00 | 0.00 | 0.00 | 43 | 1014.5 |
| 20260902220348 | 36 | 195 | 0.0 | 0.0 | 0.00 | 0.00 | 0.00 | 43 | 1014.6 |
| 20260902215843 | 36 | 205 | 0.0 | 0.0 | 0.00 | 0.00 | 0.00 | 45 | 1014.6 |
| 20260902215338 | 36 | 235 | 0.0 | 1.6 | 0.00 | 0.00 | 0.00 | 44 | 1014.4 |
| 20260902214835 | 37 | 205 | 4.8 | 4.8 | 0.00 | 0.00 | 0.00 | 42 | 1014.5 |
| 20260902214333 | 37 | 263 | 0.0 | 1.6 | 0.00 | 0.00 | 0.00 | 43 | 1014.5 |
| 20260902213828 | 37 | 159 | 1.6 | 4.8 | 0.00 | 0.00 | 0.00 | 42 | 1014.5 |
| 20260902213324 | 37 | 216 | 3.2 | 3.2 | 0.00 | 0.00 | 0.00 | 43 | 1014.8 |
| 20260902212823 | 37 | 199 | 3.2 | 3.2 | 0.00 | 0.00 | 0.00 | 41 | 1014.8 |
| 20260902212320 | 37 | 148 | 4.8 | 4.8 | 0.00 | 0.00 | 0.00 | 41 | 1014.6 |
| 20260902211816 | 37 | 214 | 0.0 | 0.0 | 0.00 | 0.00 | 0.00 | 44 | 1014.6 |
| 20260902211311 | 38 | 192 | 1.6 | 4.8 | 0.00 | 0.00 | 0.00 | 40 | 1014.9 |
| 20260902210806 | 38 | 213 | 4.8 | 4.8 | 0.00 | 0.00 | 0.00 | 40 | 1015.0 |
| 20260902210301 | 38 | 224 | 0.0 | 0.0 | 0.00 | 0.00 | 0.00 | 41 | 1014.6 |